Time,TemperatureF,DewpointF,PressureIn,WindDirection,WindDirectionDegrees,WindSpeedMPH,WindSpeedGustMPH,Humidity,HourlyPrecipIn,Conditions,Clouds,dailyrainin,SolarRadiationWatts/m^2,SoftwareType,DateUTC
2013-06-06 00:00:00,66.5,45.6,29.90,NNE,17,6.0,6.0,47,0.00,,,0.00,0,Wunderground v.1.15,2013-06-06 07:00:00,
2013-06-06 00:10:00,66.1,45.8,29.90,North,349,6.0,7.0,48,0.00,,,0.00,0,Wunderground v.1.15,2013-06-06 07:10:00,
2013-06-06 00:15:00,65.7,45.5,29.90,North,350,5.0,7.0,48,0.00,,,0.00,0,Wunderground v.1.15,2013-06-06 07:15:00,
2013-06-06 00:25:00,64.9,45.8,29.90,North,355,4.0,6.0,50,0.00,,,0.00,0,Wunderground v.1.15,2013-06-06 07:25:00,
2013-06-06 00:30:00,64.8,46.2,29.90,North,10,5.0,6.0,51,0.00,,,0.00,0,Wunderground v.1.15,2013-06-06 07:30:00,
2013-06-06 00:35:00,64.8,46.2,29.90,NNE,15,5.0,6.0,51,0.00,,,0.00,0,Wunderground v.1.15,2013-06-06 07:35:00,
2013-06-06 00:40:00,64.7,46.1,29.90,NNE,18,5.0,7.0,51,0.00,,,0.00,0,Wunderground v.1.15,2013-06-06 07:40:00,
2013-06-06 00:45:00,64.9,46.3,29.90,North,9,5.0,7.0,51,0.00,,,0.00,0,Wunderground v.1.15,2013-06-06 07:45:00,
2013-06-06 00:50:00,64.8,46.2,29.90,North,5,5.0,5.0,51,0.00,,,0.00,0,Wunderground v.1.15,2013-06-06 07:50:00,
2013-06-06 00:55:00,65.0,46.4,29.90,North,9,5.0,6.0,51,0.00,,,0.00,0,Wunderground v.1.15,2013-06-06 07:55:00,
2013-06-06 01:00:00,64.9,46.3,29.90,North,5,5.0,5.0,51,0.00,,,0.00,0,Wunderground v.1.15,2013-06-06 08:00:00,
2013-06-06 01:10:00,64.2,46.7,29.90,North,5,1.0,1.0,53,0.00,,,0.00,0,Wunderground v.1.15,2013-06-06 08:10:00,
2013-06-06 01:15:00,64.0,46.5,29.90,North,9,1.0,1.0,53,0.00,,,0.00,0,Wunderground v.1.15,2013-06-06 08:15:00,
2013-06-06 01:25:00,62.9,46.0,29.90,North,9,0.0,0.0,54,0.00,,,0.00,0,Wunderground v.1.15,2013-06-06 08:25:00,
2013-06-06 01:30:00,62.4,45.5,29.90,North,9,0.0,0.0,54,0.00,,,0.00,0,Wunderground v.1.15,2013-06-06 08:30:00,
2013-06-06 01:35:00,62.0,45.6,29.90,North,9,0.0,0.0,55,0.00,,,0.00,0,Wunderground v.1.15,2013-06-06 08:35:00,
2013-06-06 01:40:00,61.8,45.9,29.90,North,9,0.0,0.0,56,0.00,,,0.00,0,Wunderground v.1.15,2013-06-06 08:40:00,
2013-06-06 01:45:00,61.7,45.8,29.90,North,9,0.0,0.0,56,0.00,,,0.00,0,Wunderground v.1.15,2013-06-06 08:45:00,
2013-06-06 01:50:00,61.6,46.2,29.90,North,9,0.0,0.0,57,0.00,,,0.00,0,Wunderground v.1.15,2013-06-06 08:50:00,
2013-06-06 02:00:00,61.0,45.7,29.89,North,9,0.0,0.0,57,0.00,,,0.00,0,Wunderground v.1.15,2013-06-06 09:00:00,
2013-06-06 02:10:00,59.9,45.5,29.90,North,5,0.0,0.0,59,0.00,,,0.00,0,Wunderground v.1.15,2013-06-06 09:10:00,
2013-06-06 02:15:00,59.0,45.6,29.90,North,5,0.0,0.0,61,0.00,,,0.00,0,Wunderground v.1.15,2013-06-06 09:15:00,
2013-06-06 02:20:00,59.0,45.6,29.90,North,5,0.0,0.0,61,0.00,,,0.00,0,Wunderground v.1.15,2013-06-06 09:20:00,
2013-06-06 02:25:00,59.2,45.8,29.90,North,5,0.0,0.0,61,0.00,,,0.00,0,Wunderground v.1.15,2013-06-06 09:25:00,
2013-06-06 02:35:00,59.6,45.7,29.90,NNW,331,0.0,0.0,60,0.00,,,0.00,0,Wunderground v.1.15,2013-06-06 09:35:00,
2013-06-06 02:40:00,59.5,45.2,29.89,NNW,331,0.0,0.0,59,0.00,,,0.00,0,Wunderground v.1.15,2013-06-06 09:40:00,
2013-06-06 02:45:00,58.9,45.0,29.89,NNW,331,0.0,0.0,60,0.00,,,0.00,0,Wunderground v.1.15,2013-06-06 09:45:00,
2013-06-06 02:50:00,58.6,45.2,29.90,NNW,331,0.0,0.0,61,0.00,,,0.00,0,Wunderground v.1.15,2013-06-06 09:50:00,
2013-06-06 02:55:00,58.7,45.3,29.89,NNW,331,0.0,0.0,61,0.00,,,0.00,0,Wunderground v.1.15,2013-06-06 09:55:00,
2013-06-06 03:00:00,58.5,45.5,29.89,NNW,331,0.0,0.0,62,0.00,,,0.00,0,Wunderground v.1.15,2013-06-06 10:00:00,
2013-06-06 03:10:00,59.0,45.6,29.89,NNW,331,0.0,0.0,61,0.00,,,0.00,0,Wunderground v.1.15,2013-06-06 10:10:00,
2013-06-06 03:15:00,58.4,44.6,29.89,NNW,331,0.0,0.0,60,0.00,,,0.00,0,Wunderground v.1.15,2013-06-06 10:15:00,
2013-06-06 03:20:00,57.4,45.3,29.89,NNW,331,0.0,0.0,64,0.00,,,0.00,0,Wunderground v.1.15,2013-06-06 10:20:00,
2013-06-06 03:25:00,57.3,45.2,29.89,NNW,331,0.0,0.0,64,0.00,,,0.00,0,Wunderground v.1.15,2013-06-06 10:25:00,
2013-06-06 03:30:00,56.7,44.7,29.89,NNW,331,0.0,0.0,64,0.00,,,0.00,0,Wunderground v.1.15,2013-06-06 10:30:00,
2013-06-06 03:40:00,56.6,45.4,29.89,NNW,331,0.0,0.0,66,0.00,,,0.00,0,Wunderground v.1.15,2013-06-06 10:40:00,
2013-06-06 03:45:00,56.3,45.1,29.89,NNW,331,0.0,0.0,66,0.00,,,0.00,0,Wunderground v.1.15,2013-06-06 10:45:00,
2013-06-06 03:50:00,56.1,45.3,29.89,NNW,331,0.0,0.0,67,0.00,,,0.00,0,Wunderground v.1.15,2013-06-06 10:50:00,
2013-06-06 03:55:00,55.9,45.1,29.89,NNW,331,0.0,0.0,67,0.00,,,0.00,0,Wunderground v.1.15,2013-06-06 10:55:00,
2013-06-06 04:00:00,55.9,45.1,29.90,NNW,331,0.0,0.0,67,0.00,,,0.00,0,Wunderground v.1.15,2013-06-06 11:00:00,
2013-06-06 04:10:00,54.6,44.6,29.90,NNW,331,0.0,0.0,69,0.00,,,0.00,0,Wunderground v.1.15,2013-06-06 11:10:00,
2013-06-06 04:15:00,55.4,45.4,29.89,NNW,331,0.0,0.0,69,0.00,,,0.00,0,Wunderground v.1.15,2013-06-06 11:15:00,
2013-06-06 04:20:00,55.9,45.5,29.90,NNW,331,0.0,0.0,68,0.00,,,0.00,0,Wunderground v.1.15,2013-06-06 11:20:00,
2013-06-06 04:25:00,55.8,45.4,29.90,NNW,331,0.0,0.0,68,0.00,,,0.00,0,Wunderground v.1.15,2013-06-06 11:25:00,
2013-06-06 04:30:00,56.1,45.7,29.90,NNW,331,0.0,0.0,68,0.00,,,0.00,0,Wunderground v.1.15,2013-06-06 11:30:00,
2013-06-06 04:35:00,56.2,45.8,29.90,NNW,331,0.0,0.0,68,0.00,,,0.00,0,Wunderground v.1.15,2013-06-06 11:35:00,
2013-06-06 04:45:00,56.1,45.7,29.90,NNW,331,0.0,0.0,68,0.00,,,0.00,0,Wunderground v.1.15,2013-06-06 11:45:00,
2013-06-06 04:50:00,55.8,45.4,29.90,NNW,331,0.0,0.0,68,0.00,,,0.00,0,Wunderground v.1.15,2013-06-06 11:50:00,
2013-06-06 04:55:00,54.7,44.3,29.90,NNW,331,0.0,0.0,68,0.00,,,0.00,0,Wunderground v.1.15,2013-06-06 11:55:00,
2013-06-06 05:00:00,53.8,44.2,29.90,NNW,331,0.0,0.0,70,0.00,,,0.00,0,Wunderground v.1.15,2013-06-06 12:00:00,
2013-06-06 05:10:00,52.8,44.0,29.90,NNW,331,0.0,0.0,72,0.00,,,0.00,0,Wunderground v.1.15,2013-06-06 12:10:00,
2013-06-06 05:15:00,52.8,44.4,29.90,NNW,331,0.0,0.0,73,0.00,,,0.00,0,Wunderground v.1.15,2013-06-06 12:15:00,
2013-06-06 05:20:00,53.1,44.3,29.90,NNW,331,0.0,0.0,72,0.00,,,0.00,0,Wunderground v.1.15,2013-06-06 12:20:00,
2013-06-06 05:30:00,53.1,44.7,29.90,NNW,331,0.0,0.0,73,0.00,,,0.00,5,Wunderground v.1.15,2013-06-06 12:30:00,
2013-06-06 05:35:00,53.0,44.6,29.90,NNW,331,0.0,0.0,73,0.00,,,0.00,9,Wunderground v.1.15,2013-06-06 12:35:00,
2013-06-06 05:40:00,52.5,44.8,29.90,NNW,331,0.0,0.0,75,0.00,,,0.00,12,Wunderground v.1.15,2013-06-06 12:40:00,
2013-06-06 05:45:00,51.9,44.6,29.90,NNW,331,0.0,0.0,76,0.00,,,0.00,16,Wunderground v.1.15,2013-06-06 12:45:00,
2013-06-06 05:50:00,51.8,44.5,29.91,NNW,331,0.0,0.0,76,0.00,,,0.00,19,Wunderground v.1.15,2013-06-06 12:50:00,
2013-06-06 05:55:00,52.0,45.0,29.91,NNW,331,0.0,0.0,77,0.00,,,0.00,23,Wunderground v.1.15,2013-06-06 12:55:00,
2013-06-06 06:00:00,52.2,45.2,29.91,NNW,331,0.0,0.0,77,0.00,,,0.00,26,Wunderground v.1.15,2013-06-06 13:00:00,
2013-06-06 06:10:00,52.3,45.3,29.91,NNW,330,0.0,0.0,77,0.00,,,0.00,32,Wunderground v.1.15,2013-06-06 13:10:00,
2013-06-06 06:20:00,52.1,45.1,29.91,NNW,330,0.0,0.0,77,0.00,,,0.00,39,Wunderground v.1.15,2013-06-06 13:20:00,
2013-06-06 06:25:00,52.3,45.3,29.91,NNW,330,0.0,0.0,77,0.00,,,0.00,44,Wunderground v.1.15,2013-06-06 13:25:00,
2013-06-06 06:30:00,52.8,45.8,29.91,NNW,330,0.0,0.0,77,0.00,,,0.00,54,Wunderground v.1.15,2013-06-06 13:30:00,
2013-06-06 06:35:00,52.8,45.4,29.91,NNW,330,0.0,0.0,76,0.00,,,0.00,63,Wunderground v.1.15,2013-06-06 13:35:00,
2013-06-06 06:40:00,53.2,45.8,29.91,NNW,330,0.0,0.0,76,0.00,,,0.00,72,Wunderground v.1.15,2013-06-06 13:40:00,
2013-06-06 06:50:00,53.7,46.0,29.91,NNW,330,0.0,0.0,75,0.00,,,0.00,104,Wunderground v.1.15,2013-06-06 13:50:00,
2013-06-06 06:55:00,54.1,46.0,29.91,NNW,330,0.0,0.0,74,0.00,,,0.00,111,Wunderground v.1.15,2013-06-06 13:55:00,
2013-06-06 07:00:00,54.8,46.3,29.91,NNW,330,0.0,1.0,73,0.00,,,0.00,130,Wunderground v.1.15,2013-06-06 14:00:00,
2013-06-06 07:10:00,56.0,46.7,29.92,NNW,330,0.0,0.0,71,0.00,,,0.00,162,Wunderground v.1.15,2013-06-06 14:10:00,
2013-06-06 07:15:00,56.7,46.6,29.92,NW,326,0.0,0.0,69,0.00,,,0.00,167,Wunderground v.1.15,2013-06-06 14:15:00,
2013-06-06 07:25:00,57.9,47.0,29.91,SW,217,0.0,0.0,67,0.00,,,0.00,178,Wunderground v.1.15,2013-06-06 14:25:00,
2013-06-06 07:30:00,58.5,47.2,29.92,SSW,194,0.0,0.0,66,0.00,,,0.00,218,Wunderground v.1.15,2013-06-06 14:30:00,
2013-06-06 07:35:00,59.2,47.0,29.91,SSW,192,0.0,0.0,64,0.00,,,0.00,251,Wunderground v.1.15,2013-06-06 14:35:00,
2013-06-06 07:40:00,59.7,47.1,29.91,SSW,192,0.0,0.0,63,0.00,,,0.00,216,Wunderground v.1.15,2013-06-06 14:40:00,
2013-06-06 07:45:00,60.1,47.0,29.91,SSW,192,0.0,0.0,62,0.00,,,0.00,200,Wunderground v.1.15,2013-06-06 14:45:00,
2013-06-06 07:55:00,60.5,47.0,29.91,SSW,192,0.0,0.0,61,0.00,,,0.00,181,Wunderground v.1.15,2013-06-06 14:55:00,
2013-06-06 08:00:00,60.6,47.1,29.92,SSW,193,0.0,3.0,61,0.00,,,0.00,206,Wunderground v.1.15,2013-06-06 15:00:00,
2013-06-06 08:10:00,60.8,47.3,29.92,SSW,192,2.0,3.0,61,0.00,,,0.00,223,Wunderground v.1.15,2013-06-06 15:10:00,
2013-06-06 08:15:00,60.7,47.6,29.92,South,191,1.0,3.0,62,0.00,,,0.00,271,Wunderground v.1.15,2013-06-06 15:15:00,
2013-06-06 08:20:00,61.3,47.7,29.92,South,190,0.0,0.0,61,0.00,,,0.00,464,Wunderground v.1.15,2013-06-06 15:20:00,
2013-06-06 08:30:00,63.0,48.0,29.92,South,190,0.0,0.0,58,0.00,,,0.00,490,Wunderground v.1.15,2013-06-06 15:30:00,
2013-06-06 08:35:00,65.4,49.3,29.92,South,190,0.0,0.0,56,0.00,,,0.00,497,Wunderground v.1.15,2013-06-06 15:35:00,
2013-06-06 08:40:00,66.9,49.2,29.92,South,189,0.0,0.0,53,0.00,,,0.00,506,Wunderground v.1.15,2013-06-06 15:40:00,
2013-06-06 08:45:00,65.8,49.2,29.92,SSW,196,0.0,0.0,55,0.00,,,0.00,519,Wunderground v.1.15,2013-06-06 15:45:00,
2013-06-06 08:50:00,67.7,49.4,29.92,SSW,194,0.0,0.0,52,0.00,,,0.00,534,Wunderground v.1.15,2013-06-06 15:50:00,
2013-06-06 09:00:00,69.2,49.8,29.92,SSW,194,0.0,0.0,50,0.00,,,0.00,561,Wunderground v.1.15,2013-06-06 16:00:00,
2013-06-06 09:10:00,70.1,50.0,29.92,SSE,163,0.0,0.0,49,0.00,,,0.00,589,Wunderground v.1.15,2013-06-06 16:10:00,
2013-06-06 09:15:00,70.6,50.0,29.92,East,101,0.0,0.0,48,0.00,,,0.00,601,Wunderground v.1.15,2013-06-06 16:15:00,
2013-06-06 09:20:00,71.4,50.1,29.92,East,101,0.0,0.0,47,0.00,,,0.00,613,Wunderground v.1.15,2013-06-06 16:20:00,
2013-06-06 09:25:00,71.6,50.3,29.92,East,100,0.0,0.0,47,0.00,,,0.00,628,Wunderground v.1.15,2013-06-06 16:25:00,
2013-06-06 09:35:00,72.7,50.7,29.91,NE,51,1.0,1.0,46,0.00,,,0.00,652,Wunderground v.1.15,2013-06-06 16:35:00,
2013-06-06 09:40:00,72.1,50.2,29.91,North,355,2.0,5.0,46,0.00,,,0.00,664,Wunderground v.1.15,2013-06-06 16:40:00,
2013-06-06 09:45:00,71.6,50.3,29.91,NNW,340,2.0,5.0,47,0.00,,,0.00,679,Wunderground v.1.15,2013-06-06 16:45:00,
2013-06-06 09:50:00,72.4,50.4,29.91,NNW,340,1.0,1.0,46,0.00,,,0.00,689,Wunderground v.1.15,2013-06-06 16:50:00,
2013-06-06 09:55:00,72.6,50.6,29.91,NNW,340,0.0,1.0,46,0.00,,,0.00,703,Wunderground v.1.15,2013-06-06 16:55:00,
2013-06-06 10:00:00,72.2,50.3,29.91,NNE,14,1.0,4.0,46,0.00,,,0.00,715,Wunderground v.1.15,2013-06-06 17:00:00,
2013-06-06 10:10:00,74.4,51.1,29.90,NNE,28,1.0,5.0,44,0.00,,,0.00,735,Wunderground v.1.15,2013-06-06 17:10:00,
2013-06-06 10:15:00,74.5,50.5,29.90,NNE,28,2.0,5.0,43,0.00,,,0.00,749,Wunderground v.1.15,2013-06-06 17:15:00,
2013-06-06 10:20:00,74.7,51.3,29.90,NNE,28,2.0,2.0,44,0.00,,,0.00,761,Wunderground v.1.15,2013-06-06 17:20:00,
2013-06-06 10:25:00,74.9,49.6,29.90,NNE,28,1.0,2.0,41,0.00,,,0.00,770,Wunderground v.1.15,2013-06-06 17:25:00,
2013-06-06 10:30:00,75.3,50.0,29.90,NNE,28,1.0,1.0,41,0.00,,,0.00,779,Wunderground v.1.15,2013-06-06 17:30:00,
2013-06-06 10:35:00,74.9,49.6,29.89,NNW,346,2.0,2.0,41,0.00,,,0.00,791,Wunderground v.1.15,2013-06-06 17:35:00,
2013-06-06 10:40:00,74.9,48.9,29.90,NNW,329,2.0,2.0,40,0.00,,,0.00,800,Wunderground v.1.15,2013-06-06 17:40:00,
2013-06-06 10:50:00,76.7,49.2,29.89,NNW,335,1.0,3.0,38,0.00,,,0.00,821,Wunderground v.1.15,2013-06-06 17:50:00,
2013-06-06 10:55:00,76.2,48.7,29.89,NNW,335,1.0,3.0,38,0.00,,,0.00,826,Wunderground v.1.15,2013-06-06 17:55:00,
2013-06-06 11:00:00,76.8,50.0,29.89,NW,325,2.0,5.0,39,0.00,,,0.00,840,Wunderground v.1.15,2013-06-06 18:00:00,
2013-06-06 11:05:00,76.0,49.9,29.89,North,11,3.0,5.0,40,0.00,,,0.00,847,Wunderground v.1.15,2013-06-06 18:05:00,
2013-06-06 11:14:00,78.3,49.1,29.89,West,270,2.0,3.0,36,0.00,,,0.00,865,Wunderground v.1.15,2013-06-06 18:14:00,
2013-06-06 11:20:00,78.7,50.2,29.89,West,281,1.0,3.0,37,0.00,,,0.00,872,Wunderground v.1.15,2013-06-06 18:20:00,
2013-06-06 11:25:00,78.3,50.6,29.89,NW,320,2.0,3.0,38,0.00,,,0.00,881,Wunderground v.1.15,2013-06-06 18:25:00,
2013-06-06 11:30:00,78.9,48.1,29.89,West,266,3.0,3.0,34,0.00,,,0.00,886,Wunderground v.1.15,2013-06-06 18:30:00,
2013-06-06 11:35:00,79.0,49.0,29.89,West,276,3.0,6.0,35,0.00,,,0.00,891,Wunderground v.1.15,2013-06-06 18:35:00,
2013-06-06 11:40:00,79.8,49.7,29.89,WSW,257,3.0,3.0,35,0.00,,,0.00,902,Wunderground v.1.15,2013-06-06 18:40:00,
2013-06-06 11:45:00,79.5,49.4,29.88,WSW,240,3.0,3.0,35,0.00,,,0.00,905,Wunderground v.1.15,2013-06-06 18:45:00,
2013-06-06 11:50:00,80.8,50.6,29.88,North,11,2.0,7.0,35,0.00,,,0.00,907,Wunderground v.1.15,2013-06-06 18:50:00,
2013-06-06 11:55:00,79.3,50.0,29.88,NNW,340,3.0,9.0,36,0.00,,,0.00,914,Wunderground v.1.15,2013-06-06 18:55:00,
2013-06-06 12:00:00,78.5,49.3,29.88,NNW,336,5.0,5.0,36,0.00,,,0.00,921,Wunderground v.1.15,2013-06-06 19:00:00,
2013-06-06 12:10:00,79.2,48.4,29.88,North,355,7.0,8.0,34,0.00,,,0.00,932,Wunderground v.1.15,2013-06-06 19:10:00,
2013-06-06 12:15:00,79.6,49.5,29.88,North,11,7.0,8.0,35,0.00,,,0.00,942,Wunderground v.1.15,2013-06-06 19:15:00,
2013-06-06 12:20:00,79.4,50.1,29.87,NNE,14,5.0,5.0,36,0.00,,,0.00,939,Wunderground v.1.15,2013-06-06 19:20:00,
2013-06-06 12:25:00,79.0,49.0,29.87,NNE,28,6.0,10.0,35,0.00,,,0.00,942,Wunderground v.1.15,2013-06-06 19:25:00,
2013-06-06 12:30:00,78.9,48.9,29.87,NNE,31,7.0,7.0,35,0.00,,,0.00,944,Wunderground v.1.15,2013-06-06 19:30:00,
2013-06-06 12:35:00,79.6,49.5,29.87,NNE,21,6.0,7.0,35,0.00,,,0.00,949,Wunderground v.1.15,2013-06-06 19:35:00,
2013-06-06 12:45:00,81.0,49.2,29.87,North,350,6.0,10.0,33,0.00,,,0.00,958,Wunderground v.1.15,2013-06-06 19:45:00,
2013-06-06 12:50:00,81.0,48.4,29.86,North,350,6.0,6.0,32,0.00,,,0.00,958,Wunderground v.1.15,2013-06-06 19:50:00,
2013-06-06 12:55:00,80.9,48.3,29.86,ENE,59,5.0,7.0,32,0.00,,,0.00,962,Wunderground v.1.15,2013-06-06 19:55:00,
2013-06-06 13:00:00,81.5,47.9,29.86,NNE,25,4.0,7.0,31,0.00,,,0.00,967,Wunderground v.1.15,2013-06-06 20:00:00,
2013-06-06 13:05:00,81.2,47.7,29.86,NNE,32,4.0,7.0,31,0.00,,,0.00,967,Wunderground v.1.15,2013-06-06 20:05:00,
2013-06-06 13:10:00,81.3,46.9,29.86,NNE,23,5.0,5.0,30,0.00,,,0.00,972,Wunderground v.1.15,2013-06-06 20:10:00,
2013-06-06 13:20:00,83.1,46.6,29.86,North,5,3.0,5.0,28,0.00,,,0.00,976,Wunderground v.1.15,2013-06-06 20:20:00,
2013-06-06 13:25:00,82.3,46.9,29.86,North,355,4.0,6.0,29,0.00,,,0.00,953,Wunderground v.1.15,2013-06-06 20:25:00,
2013-06-06 13:30:00,83.3,48.6,29.86,North,360,5.0,5.0,30,0.00,,,0.00,956,Wunderground v.1.15,2013-06-06 20:30:00,
2013-06-06 13:35:00,83.4,47.8,29.86,North,355,6.0,7.0,29,0.00,,,0.00,951,Wunderground v.1.15,2013-06-06 20:35:00,
2013-06-06 13:40:00,82.6,47.1,29.86,NE,36,6.0,6.0,29,0.00,,,0.00,960,Wunderground v.1.15,2013-06-06 20:40:00,
2013-06-06 13:50:00,83.4,45.9,29.85,NE,38,4.0,4.0,27,0.00,,,0.00,949,Wunderground v.1.15,2013-06-06 20:50:00,
2013-06-06 13:55:00,82.9,46.4,29.85,NNE,22,5.0,7.0,28,0.00,,,0.00,925,Wunderground v.1.15,2013-06-06 20:55:00,
2013-06-06 14:00:00,82.7,47.2,29.85,ENE,69,6.0,6.0,29,0.00,,,0.00,937,Wunderground v.1.15,2013-06-06 21:00:00,
2013-06-06 14:10:00,84.0,47.4,29.85,NE,56,4.0,5.0,28,0.00,,,0.00,976,Wunderground v.1.15,2013-06-06 21:10:00,
2013-06-06 14:15:00,84.5,47.8,29.85,NE,35,6.0,10.0,28,0.00,,,0.00,912,Wunderground v.1.15,2013-06-06 21:15:00,
2013-06-06 14:25:00,83.9,48.2,29.84,North,360,5.0,6.0,29,0.00,,,0.00,877,Wunderground v.1.15,2013-06-06 21:25:00,
2013-06-06 14:30:00,84.3,47.6,29.84,NW,321,5.0,5.0,28,0.00,,,0.00,809,Wunderground v.1.15,2013-06-06 21:30:00,
2013-06-06 14:35:00,84.5,47.8,29.84,NNE,19,5.0,5.0,28,0.00,,,0.00,731,Wunderground v.1.15,2013-06-06 21:35:00,
2013-06-06 14:40:00,84.8,49.9,29.84,North,11,4.0,7.0,30,0.00,,,0.00,911,Wunderground v.1.15,2013-06-06 21:40:00,
2013-06-06 14:45:00,85.2,48.4,29.84,NNE,32,4.0,7.0,28,0.00,,,0.00,930,Wunderground v.1.15,2013-06-06 21:45:00,
2013-06-06 14:55:00,84.6,48.8,29.84,NNE,21,6.0,10.0,29,0.00,,,0.00,896,Wunderground v.1.15,2013-06-06 21:55:00,
2013-06-06 15:00:00,84.1,48.4,29.84,ENE,57,6.0,6.0,29,0.00,,,0.00,900,Wunderground v.1.15,2013-06-06 22:00:00,
2013-06-06 15:10:00,85.3,48.5,29.83,NNE,13,5.0,7.0,28,0.00,,,0.00,844,Wunderground v.1.15,2013-06-06 22:10:00,
2013-06-06 15:15:00,85.7,48.8,29.83,NE,36,6.0,10.0,28,0.00,,,0.00,821,Wunderground v.1.15,2013-06-06 22:15:00,
2013-06-06 15:20:00,85.1,48.3,29.83,NNE,14,7.0,12.0,28,0.00,,,0.00,814,Wunderground v.1.15,2013-06-06 22:20:00,
2013-06-06 15:30:00,85.4,47.6,29.83,North,360,7.0,7.0,27,0.00,,,0.00,809,Wunderground v.1.15,2013-06-06 22:30:00,
2013-06-06 15:35:00,86.0,47.1,29.83,North,355,7.0,9.0,26,0.00,,,0.00,798,Wunderground v.1.15,2013-06-06 22:35:00,
2013-06-06 15:40:00,85.4,46.6,29.83,NE,52,7.0,7.0,26,0.00,,,0.00,814,Wunderground v.1.15,2013-06-06 22:40:00,
2013-06-06 15:45:00,85.5,46.7,29.83,NE,38,8.0,8.0,26,0.00,,,0.00,775,Wunderground v.1.15,2013-06-06 22:45:00,
2013-06-06 15:50:00,85.7,46.9,29.82,NNE,27,8.0,11.0,26,0.00,,,0.00,796,Wunderground v.1.15,2013-06-06 22:50:00,
2013-06-06 16:00:00,86.0,47.1,29.82,NE,51,6.0,10.0,26,0.00,,,0.00,810,Wunderground v.1.15,2013-06-06 23:00:00,
2013-06-06 16:10:00,86.3,47.4,29.82,NNE,16,6.0,6.0,26,0.00,,,0.00,756,Wunderground v.1.15,2013-06-06 23:10:00,
2013-06-06 16:15:00,85.7,47.9,29.82,NNW,337,6.0,6.0,27,0.00,,,0.00,724,Wunderground v.1.15,2013-06-06 23:15:00,
2013-06-06 16:20:00,86.3,47.4,29.82,NNE,24,6.0,10.0,26,0.00,,,0.00,656,Wunderground v.1.15,2013-06-06 23:20:00,
2013-06-06 16:25:00,86.3,47.4,29.82,NE,44,7.0,10.0,26,0.00,,,0.00,677,Wunderground v.1.15,2013-06-06 23:25:00,
2013-06-06 16:35:00,86.3,47.4,29.81,North,5,5.0,8.0,26,0.00,,,0.00,700,Wunderground v.1.15,2013-06-06 23:35:00,
2013-06-06 16:40:00,86.4,47.5,29.81,NNE,21,6.0,6.0,26,0.00,,,0.00,633,Wunderground v.1.15,2013-06-06 23:40:00,
2013-06-06 16:45:00,86.2,47.3,29.81,NNE,27,6.0,6.0,26,0.00,,,0.00,615,Wunderground v.1.15,2013-06-06 23:45:00,
2013-06-06 16:50:00,86.3,47.4,29.81,North,5,6.0,9.0,26,0.00,,,0.00,626,Wunderground v.1.15,2013-06-06 23:50:00,
2013-06-06 16:55:00,86.5,46.5,29.81,NNE,25,6.0,9.0,25,0.00,,,0.00,636,Wunderground v.1.15,2013-06-06 23:55:00,
2013-06-06 17:00:00,86.5,47.5,29.81,NNE,28,7.0,7.0,26,0.00,,,0.00,605,Wunderground v.1.15,2013-06-07 00:00:00,
2013-06-06 17:10:00,85.7,45.8,29.81,NNE,25,8.0,8.0,25,0.00,,,0.00,563,Wunderground v.1.15,2013-06-07 00:10:00,
2013-06-06 17:15:00,86.2,46.2,29.81,NE,53,8.0,8.0,25,0.00,,,0.00,606,Wunderground v.1.15,2013-06-07 00:15:00,
2013-06-06 17:20:00,86.5,46.5,29.81,NNE,25,6.0,6.0,25,0.00,,,0.00,513,Wunderground v.1.15,2013-06-07 00:20:00,
2013-06-06 17:25:00,86.5,45.4,29.81,NNE,15,6.0,8.0,24,0.00,,,0.00,561,Wunderground v.1.15,2013-06-07 00:25:00,
2013-06-06 17:30:00,86.5,45.4,29.81,NE,49,7.0,7.0,24,0.00,,,0.00,496,Wunderground v.1.15,2013-06-07 00:30:00,
2013-06-06 17:35:00,86.2,45.2,29.81,NNE,26,7.0,7.0,24,0.00,,,0.00,568,Wunderground v.1.15,2013-06-07 00:35:00,
2013-06-06 17:40:00,86.1,45.1,29.81,NNE,26,9.0,9.0,24,0.00,,,0.00,543,Wunderground v.1.15,2013-06-07 00:40:00,
2013-06-06 17:45:00,86.1,44.0,29.80,NE,48,8.0,9.0,23,0.00,,,0.00,297,Wunderground v.1.15,2013-06-07 00:45:00,
2013-06-06 17:50:00,85.9,43.8,29.81,NNE,16,7.0,8.0,23,0.00,,,0.00,404,Wunderground v.1.15,2013-06-07 00:50:00,
2013-06-06 17:55:00,85.9,43.8,29.81,NNE,23,7.0,8.0,23,0.00,,,0.00,482,Wunderground v.1.15,2013-06-07 00:55:00,
2013-06-06 18:00:00,85.9,43.8,29.80,NNE,23,7.0,8.0,23,0.00,,,0.00,327,Wunderground v.1.15,2013-06-07 01:00:00,
2013-06-06 18:10:00,86.1,44.0,29.81,North,11,6.0,7.0,23,0.00,,,0.00,457,Wunderground v.1.15,2013-06-07 01:10:00,
2013-06-06 18:15:00,86.2,44.0,29.81,NNE,25,6.0,8.0,23,0.00,,,0.00,346,Wunderground v.1.15,2013-06-07 01:15:00,
2013-06-06 18:20:00,85.7,43.6,29.81,NNE,30,7.0,7.0,23,0.00,,,0.00,272,Wunderground v.1.15,2013-06-07 01:20:00,
2013-06-06 18:25:00,85.4,44.5,29.81,NNE,22,7.0,12.0,24,0.00,,,0.00,309,Wunderground v.1.15,2013-06-07 01:25:00,
2013-06-06 18:30:00,85.2,44.3,29.81,NNE,22,8.0,8.0,24,0.00,,,0.00,258,Wunderground v.1.15,2013-06-07 01:30:00,
2013-06-06 18:40:00,84.9,46.2,29.81,NE,35,8.0,10.0,26,0.00,,,0.00,229,Wunderground v.1.15,2013-06-07 01:40:00,
2013-06-06 18:45:00,84.5,47.8,29.81,North,360,10.0,10.0,28,0.00,,,0.00,149,Wunderground v.1.15,2013-06-07 01:45:00,
2013-06-06 18:50:00,83.8,49.1,29.81,North,360,10.0,10.0,30,0.00,,,0.00,120,Wunderground v.1.15,2013-06-07 01:50:00,
2013-06-06 18:55:00,83.3,48.6,29.81,North,5,10.0,10.0,30,0.00,,,0.00,100,Wunderground v.1.15,2013-06-07 01:55:00,
2013-06-06 19:00:00,83.1,50.2,29.82,North,355,8.0,8.0,32,0.00,,,0.00,104,Wunderground v.1.15,2013-06-07 02:00:00,
2013-06-06 19:10:00,82.2,51.8,29.82,NNW,344,9.0,9.0,35,0.00,,,0.00,102,Wunderground v.1.15,2013-06-07 02:10:00,
2013-06-06 19:15:00,81.8,51.5,29.83,NNW,339,10.0,10.0,35,0.00,,,0.00,95,Wunderground v.1.15,2013-06-07 02:15:00,
2013-06-06 19:20:00,81.5,52.0,29.83,NNW,338,9.0,10.0,36,0.00,,,0.00,88,Wunderground v.1.15,2013-06-07 02:20:00,
2013-06-06 19:25:00,81.1,51.6,29.82,North,360,9.0,10.0,36,0.00,,,0.00,83,Wunderground v.1.15,2013-06-07 02:25:00,
2013-06-06 19:30:00,80.6,50.4,29.83,NW,319,10.0,10.0,35,0.00,,,0.00,74,Wunderground v.1.15,2013-06-07 02:30:00,
2013-06-06 19:35:00,80.2,50.8,29.83,NNW,335,10.0,11.0,36,0.00,,,0.00,69,Wunderground v.1.15,2013-06-07 02:35:00,
2013-06-06 19:45:00,79.3,50.0,29.83,NNW,327,11.0,15.0,36,0.00,,,0.00,67,Wunderground v.1.15,2013-06-07 02:45:00,
2013-06-06 19:50:00,79.0,49.8,29.83,NNE,15,10.0,10.0,36,0.00,,,0.00,63,Wunderground v.1.15,2013-06-07 02:50:00,
2013-06-06 19:55:00,78.6,50.1,29.84,NNE,19,7.0,10.0,37,0.00,,,0.00,60,Wunderground v.1.15,2013-06-07 02:55:00,
2013-06-06 20:00:00,78.2,49.8,29.84,North,5,7.0,7.0,37,0.00,,,0.00,60,Wunderground v.1.15,2013-06-07 03:00:00,
2013-06-06 20:10:00,77.4,50.5,29.84,NNW,340,7.0,7.0,39,0.00,,,0.00,42,Wunderground v.1.15,2013-06-07 03:10:00,
2013-06-06 20:20:00,76.8,50.6,29.85,North,355,8.0,8.0,40,0.00,,,0.00,44,Wunderground v.1.15,2013-06-07 03:20:00,
2013-06-06 20:25:00,76.4,51.0,29.85,NNW,348,7.0,8.0,41,0.00,,,0.00,28,Wunderground v.1.15,2013-06-07 03:25:00,
2013-06-06 20:30:00,76.0,50.6,29.85,North,360,7.0,9.0,41,0.00,,,0.00,19,Wunderground v.1.15,2013-06-07 03:30:00,
2013-06-06 20:35:00,75.7,50.3,29.85,North,355,6.0,9.0,41,0.00,,,0.00,9,Wunderground v.1.15,2013-06-07 03:35:00,
2013-06-06 20:40:00,75.3,50.0,29.85,North,355,7.0,7.0,41,0.00,,,0.00,5,Wunderground v.1.15,2013-06-07 03:40:00,
2013-06-06 20:50:00,74.4,49.8,29.86,North,351,6.0,6.0,42,0.00,,,0.00,0,Wunderground v.1.15,2013-06-07 03:50:00,
2013-06-06 20:55:00,73.9,49.4,29.86,North,355,7.0,7.0,42,0.00,,,0.00,0,Wunderground v.1.15,2013-06-07 03:55:00,
2013-06-06 21:00:00,73.5,49.0,29.86,NNW,331,7.0,7.0,42,0.00,,,0.00,0,Wunderground v.1.15,2013-06-07 04:00:00,
2013-06-06 21:05:00,73.1,49.3,29.86,NNE,15,6.0,7.0,43,0.00,,,0.00,0,Wunderground v.1.15,2013-06-07 04:05:00,
2013-06-06 21:10:00,72.6,48.8,29.87,NNW,348,5.0,6.0,43,0.00,,,0.00,0,Wunderground v.1.15,2013-06-07 04:10:00,
2013-06-06 21:15:00,72.4,48.6,29.87,North,5,5.0,6.0,43,0.00,,,0.00,0,Wunderground v.1.15,2013-06-07 04:15:00,
2013-06-06 21:25:00,72.0,47.6,29.87,NNE,14,5.0,5.0,42,0.00,,,0.00,0,Wunderground v.1.15,2013-06-07 04:25:00,
2013-06-06 21:30:00,71.8,47.5,29.87,NE,56,5.0,7.0,42,0.00,,,0.00,0,Wunderground v.1.15,2013-06-07 04:30:00,
2013-06-06 21:35:00,71.6,47.3,29.88,ENE,58,6.0,7.0,42,0.00,,,0.00,0,Wunderground v.1.15,2013-06-07 04:35:00,
2013-06-06 21:40:00,71.5,46.6,29.88,ENE,67,7.0,7.0,41,0.00,,,0.00,0,Wunderground v.1.15,2013-06-07 04:40:00,
2013-06-06 21:45:00,71.3,46.4,29.89,NE,52,6.0,7.0,41,0.00,,,0.00,0,Wunderground v.1.15,2013-06-07 04:45:00,
2013-06-06 21:50:00,71.0,46.1,29.89,NE,35,3.0,3.0,41,0.00,,,0.00,0,Wunderground v.1.15,2013-06-07 04:50:00,
2013-06-06 21:55:00,70.7,45.8,29.89,NNE,31,3.0,4.0,41,0.00,,,0.00,0,Wunderground v.1.15,2013-06-07 04:55:00,
2013-06-06 22:00:00,70.4,45.6,29.89,NE,46,6.0,6.0,41,0.00,,,0.00,0,Wunderground v.1.15,2013-06-07 05:00:00,
2013-06-06 22:10:00,70.0,45.2,29.89,NNE,28,5.0,5.0,41,0.00,,,0.00,0,Wunderground v.1.15,2013-06-07 05:10:00,
2013-06-06 22:15:00,69.6,45.5,29.89,NNE,17,5.0,6.0,42,0.00,,,0.00,0,Wunderground v.1.15,2013-06-07 05:15:00,
2013-06-06 22:20:00,69.2,45.1,29.89,NNE,32,5.0,6.0,42,0.00,,,0.00,0,Wunderground v.1.15,2013-06-07 05:20:00,
2013-06-06 22:30:00,68.8,45.4,29.89,NE,36,3.0,3.0,43,0.00,,,0.00,0,Wunderground v.1.15,2013-06-07 05:30:00,
2013-06-06 22:35:00,68.7,45.9,29.89,NNE,13,2.0,3.0,44,0.00,,,0.00,0,Wunderground v.1.15,2013-06-07 05:35:00,
2013-06-06 22:40:00,68.4,46.2,29.89,NNE,16,0.0,0.0,45,0.00,,,0.00,0,Wunderground v.1.15,2013-06-07 05:40:00,
2013-06-06 22:45:00,68.2,46.0,29.90,NNE,16,0.0,0.0,45,0.00,,,0.00,0,Wunderground v.1.15,2013-06-07 05:45:00,
2013-06-06 22:50:00,68.0,45.9,29.90,NNE,16,0.0,0.0,45,0.00,,,0.00,0,Wunderground v.1.15,2013-06-07 05:50:00,
2013-06-06 22:55:00,67.9,46.3,29.90,NNE,26,1.0,4.0,46,0.00,,,0.00,0,Wunderground v.1.15,2013-06-07 05:55:00,
2013-06-06 23:00:00,67.7,46.2,29.90,North,5,3.0,6.0,46,0.00,,,0.00,0,Wunderground v.1.15,2013-06-07 06:00:00,
2013-06-06 23:10:00,67.2,46.3,29.91,North,5,2.0,2.0,47,0.00,,,0.00,0,Wunderground v.1.15,2013-06-07 06:10:00,
2013-06-06 23:15:00,66.8,46.5,29.91,North,5,1.0,2.0,48,0.00,,,0.00,0,Wunderground v.1.15,2013-06-07 06:15:00,
2013-06-06 23:24:00,66.6,46.8,29.91,NNE,19,1.0,1.0,49,0.00,,,0.00,0,Wunderground v.1.15,2013-06-07 06:24:00,
2013-06-06 23:30:00,66.4,47.2,29.91,North,5,2.0,6.0,50,0.00,,,0.00,0,Wunderground v.1.15,2013-06-07 06:30:00,
2013-06-06 23:35:00,66.3,47.1,29.91,NNE,13,4.0,6.0,50,0.00,,,0.00,0,Wunderground v.1.15,2013-06-07 06:35:00,
2013-06-06 23:40:00,66.2,47.5,29.92,NNE,26,4.0,4.0,51,0.00,,,0.00,0,Wunderground v.1.15,2013-06-07 06:40:00,
2013-06-06 23:45:00,66.1,47.4,29.92,NNE,25,3.0,4.0,51,0.00,,,0.00,0,Wunderground v.1.15,2013-06-07 06:45:00,
2013-06-06 23:50:00,65.8,47.2,29.92,NNE,25,1.0,1.0,51,0.00,,,0.00,0,Wunderground v.1.15,2013-06-07 06:50:00,
2013-06-06 23:55:00,65.7,47.6,29.92,NNE,29,1.0,2.0,52,0.00,,,0.00,0,Wunderground v.1.15,2013-06-07 06:55:00,